Home > Weather > Goslar > Past weeks

Flag for Germany Weather for the Past 2 Weeks in Goslar, Lower Saxony, Germany

Now
36 °F

Partly cloudy.


Feels Like: 28 °F
Forecast: 34 / 40 °F
Wind: 10 mph from East

Location: Braunschweig Wolfsburg

Current Time: Feb 13, 2016 at 8:28:47 PM

Latest Report: Feb 13, 2016 at 7:50 PM


Visibility: N/A

Pressure: 29.24 "Hg

Humidity: 81%

Dew point: 30 °F

Location of GoslarLocation

Historic Weather in Goslar — Graph

°F

Goslar Temperature Yesterday

Maximum temperature yesterday: 43 °F (at 1:50 PM)
Minimum temperature yesterday: 32 °F (at 6:20 AM)
Average temperature yesterday: 38 °F

High & Low Weather Summary for the Past Weeks

 TemperatureHumidityPressure
High55 °F (Feb 7, 11:50 AM)100% (Feb 1, 7:20 AM)30.24 "Hg (Feb 1, 7:20 AM)
Low28 °F (Feb 13, 7:50 AM)51% (Feb 7, 11:50 AM)28.85 "Hg (Feb 9, 7:20 PM)
Average43 °F77%29.67 "Hg
* Reported Jan 29 6:20 PM — Feb 13 6:50 PM, Goslar, Weather by CustomWeather, © 2016

Note: Actual official high and low records may vary slightly from our data, if they occured in-between our weather recording intervals... More about our weather records

Advertising

Goslar Weather History for the Previous 24 Hours

 ConditionsComfort  
Time TempWeatherWind HumidityBarometerVisibility
6:50 PM
Sat, Feb 13
37 °FClear.12 mph75%29.24 "Hg10 mi
6:20 PM37 °FClear.12 mph75%29.24 "Hg10 mi
5:50 PM37 °FClear.14 mph75%29.24 "Hg10 mi
5:20 PM37 °FSunny.14 mph75%29.27 "Hg10 mi
4:50 PM39 °FSunny.15 mph70%29.27 "Hg10 mi
4:20 PM39 °FSunny.16 mph70%29.27 "Hg10 mi
3:50 PM39 °FSunny.15 mph70%29.27 "Hg10 mi
3:20 PM41 °FSunny.17 mph66%29.27 "Hg10 mi
2:50 PM41 °FSunny.16 mph66%29.30 "Hg10 mi
2:20 PM41 °FSunny.15 mph66%29.30 "Hg10 mi
1:50 PM43 °FSunny.13 mph66%29.30 "Hg10 mi
1:20 PM43 °FSunny.12 mph66%29.33 "Hg10 mi
12:50 PM43 °FSunny.10 mph61%29.33 "Hg10 mi
12:20 PM41 °FSunny.13 mph66%29.36 "Hg10 mi
11:50 AM41 °FSunny.12 mph70%29.36 "Hg10 mi
11:20 AM39 °FSunny.7 mph75%29.36 "Hg10 mi
10:50 AM37 °FSunny.7 mph81%29.39 "Hg10 mi
10:20 AM36 °FSunny.6 mph81%29.39 "Hg10 mi
9:50 AM34 °FSunny.7 mph87%29.42 "Hg10 mi
9:20 AM32 °FClear.7 mph87%29.42 "Hg5 mi
8:50 AM30 °FClear.6 mph93%29.42 "Hg4 mi
8:20 AM28 °FClear.5 mph93%29.42 "Hg3 mi
7:50 AM28 °FClear.3 mph93%29.42 "Hg3 mi
9:20 PM
Fri, Feb 12
36 °FClear.7 mph87%29.50 "Hg10 mi
8:50 PM36 °FClear.8 mph87%29.47 "Hg10 mi
Weather by CustomWeather, © 2016

See weather overviewHow to use our weather pages